Glens Falls, NY

10:55 PM EDT on October 22, 2019 (GMT -0400)
Bennett Memorial

Weather History for KGFL - August, 2019

Change the Weather History Date:

Monday, August 12, 2019

  Actual Average Record
Temperature  
Mean Temperature 68 °F 68 °F  
Max Temperature 86 °F 80 °F 92 °F (1988)
Min Temperature 50 °F 56 °F 42 °F (2006)
Degree Days  
Heating Degree Days 0 1  
Month to date heating degree days 5 12  
Since 1 June heating degree days 75 123  
Since 1 July heating degree days 5 33  
Cooling Degree Days 3 4  
Month to date cooling degree days 40 48  
Year to date cooling degree days 336 268  
Since 1 June cooling degree days 327 256  
Growing Degree Days 17 (Base 50)    
Moisture  
Dew Point 55 °F    
Average Humidity 67    
Maximum Humidity 96    
Minimum Humidity 37    
Precipitation  
Precipitation 0.00 in 0.13 in 1.02 in (2004)
Month to date precipitation 0.15 1.56  
Year to date precipitation 26.09 23.69  
Sea Level Pressure  
Sea Level Pressure 29.91 in    
Wind  
Wind Speed 6 mph (SSW)    
Max Wind Speed 17 mph    
Max Gust Speed 23 mph    
Visibility 8 miles    
Events      
T = Trace of Precipitation, MM = Missing Value Source: NWS Daily Summary

Daily Weather History Graph

Daily Weather History Graph

Search for Another Location

Airport or City:

Astronomy

Aug. 12, 2019 Rise Set
Actual Time 5:56 AM EDT 8:02 PM EDT
Civil Twilight 5:24 AM EDT 8:33 PM EDT
Nautical Twilight 4:46 AM EDT 9:11 PM EDT
Astronomical Twilight 4:04 AM EDT 9:53 PM EDT
Moon 6:34 PM EDT (8/12) 2:58 AM EDT (8/12)
Length of Visible Light 15h 08m
Length of Day
14h 06m
Waxing Gibbous, 93% of the Moon is Illuminated
Aug 12
Waxing Gibbous
Aug 15
Full
Aug 23
Last Quarter
Aug 30
New
Sep 5
First Quarter

Hourly Weather History & Observations

Time (EDT) Temp. Heat Index Dew Point Humidity Pressure Visibility Wind Dir Wind Speed Gust Speed Precip Events Conditions
12:53 AM 57.0 °F - 53.1 °F 87% 29.96 in 10.0 mi Calm Calm - N/A   Clear
1:53 AM 54.0 °F - 52.0 °F 93% 29.96 in 10.0 mi Calm Calm - N/A   Clear
2:53 AM 54.0 °F - 51.1 °F 90% 29.96 in 10.0 mi Calm Calm - N/A   Clear
3:53 AM 53.1 °F - 51.1 °F 93% 29.96 in 2.5 mi Calm Calm - N/A   Clear
4:02 AM 52.0 °F - 51.1 °F 97% 29.96 in 10.0 mi Calm Calm - N/A   Clear
4:13 AM 52.0 °F - 51.1 °F 97% 29.96 in 1.8 mi Calm Calm - N/A   Clear
4:32 AM 53.1 °F - 51.1 °F 93% 29.96 in 3.0 mi Calm Calm - N/A   Clear
4:53 AM 51.1 °F - 50.0 °F 96% 29.97 in 2.5 mi Calm Calm - N/A   Clear
4:58 AM 50.0 °F - 50.0 °F 100% 29.96 in 0.8 mi Calm Calm - N/A   Clear
5:06 AM 51.1 °F - 48.9 °F 92% 29.97 in 2.5 mi Calm Calm - N/A   Clear
5:13 AM 52.0 °F - 50.0 °F 93% 29.96 in 10.0 mi Calm Calm - N/A   Clear
5:53 AM 51.1 °F - 48.9 °F 92% 29.96 in 4.0 mi Calm Calm - N/A   Clear
6:02 AM 51.1 °F - 48.9 °F 92% 29.96 in 1.5 mi Calm Calm - N/A   Clear
6:13 AM 51.1 °F - 50.0 °F 96% 29.97 in 0.8 mi Calm Calm - N/A   Clear
6:25 AM 52.0 °F - 48.9 °F 89% 29.96 in 2.0 mi Calm Calm - N/A   Clear
6:32 AM 52.0 °F - 48.9 °F 89% 29.96 in 10.0 mi Calm Calm - N/A   Clear
7:53 AM 61.0 °F - 55.9 °F 83% 29.96 in 10.0 mi South 4.6 mph - N/A   Clear
8:53 AM 66.0 °F - 55.9 °F 70% 29.96 in 10.0 mi South 6.9 mph - N/A   Clear
9:53 AM 70.0 °F - 57.0 °F 63% 29.95 in 10.0 mi SSE 9.2 mph - N/A   Clear
11:53 AM 78.1 °F - 61.0 °F 56% 29.91 in 10.0 mi South 10.4 mph - N/A   Clear
12:53 PM 82.0 °F 82.7 °F 61.0 °F 49% 29.87 in 10.0 mi South 10.4 mph 21.9 mph N/A   Clear
1:53 PM 81.0 °F 81.6 °F 60.1 °F 49% 29.85 in 10.0 mi Variable 5.8 mph - N/A   Mostly Cloudy
2:53 PM 82.9 °F 82.6 °F 57.9 °F 42% 29.83 in 10.0 mi SSW 16.1 mph 20.7 mph N/A   Scattered Clouds
3:53 PM 84.0 °F 83.0 °F 55.9 °F 38% 29.83 in 10.0 mi WSW 12.7 mph 17.3 mph N/A   Mostly Cloudy
4:53 PM 82.0 °F 81.7 °F 57.0 °F 42% 29.83 in 10.0 mi WSW 8.1 mph - N/A   Mostly Cloudy
5:53 PM 82.0 °F 82.0 °F 57.9 °F 44% 29.81 in 10.0 mi WSW 9.2 mph 17.3 mph N/A   Mostly Cloudy
6:53 PM 79.0 °F - 59.0 °F 50% 29.82 in 10.0 mi SW 5.8 mph - N/A   Clear
7:53 PM 75.9 °F - 60.1 °F 58% 29.81 in 10.0 mi SSW 8.1 mph - N/A   Clear
8:53 PM 75.9 °F - 61.0 °F 60% 29.81 in 10.0 mi SSW 3.5 mph - N/A   Overcast
9:53 PM 72.0 °F - 62.1 °F 71% 29.82 in 10.0 mi South 4.6 mph - N/A   Overcast
10:53 PM 72.0 °F - 62.1 °F 71% 29.81 in 10.0 mi South 6.9 mph - N/A   Mostly Cloudy
11:53 PM 72.0 °F - 63.0 °F 73% 29.81 in 10.0 mi South 5.8 mph - N/A   Mostly Cloudy